Weather History for Logansport, IN

Change the Weather History Date:

Sunday, November 4, 2012

  Actual Average Record
Temperature  
Mean Temperature 36 °F -  
Max Temperature 42 °F 49 °F 53 °F (2013)
Min Temperature 30 °F 34 °F 35 °F (2013)
Degree Days  
Heating Degree Days 29    
Moisture  
Dew Point 30 °F    
Average Humidity 82    
Maximum Humidity 100    
Minimum Humidity 61    
Precipitation  
Precipitation 0.00 in - - ()
Sea Level Pressure  
Sea Level Pressure 30.19 in    
Wind  
Wind Speed 2 mph ()    
Max Wind Speed 6 mph    
Max Gust Speed -    
Visibility 10.0 miles    
Events      
Averages and records for this station are not official NWS values.
T = Trace of Precipitation, MM = Missing Value Source: Averaged Metar Reports

Daily Weather History Graph

Daily Weather History Graph

Search for Another Location

Airport:

Trip Planner

Search our weather history database for the weather conditions in past years. The results will help you decide how hot, cold, wet, or windy it might be!

Date:

Astronomy

Nov. 04, 2012 Rise Set
Actual Time 7:19 AM EST 5:37 PM EST
Civil Twilight 6:51 AM EST 6:06 PM EST
Nautical Twilight 6:18 AM EST 6:38 PM EST
Astronomical Twilight 5:46 AM EST 7:10 PM EST
Moon 10:14 PM EST (11/4) 12:03 PM EST (11/4)
Length of Visible Light 11h 15m
Length of Day
10h 17m
Waning Gibbous, 72% of the Moon is Illuminated
Nov 4
Waning Gibbous
Nov 6
Last Quarter
Nov 13
New
Nov 20
First Quarter
Nov 28
Full

Hourly Weather History & Observations

Time (EST) Temp. Windchill Dew Point Humidity Pressure Visibility Wind Dir Wind Speed Gust Speed Precip Events Conditions
12:15 AM 32.0 °F 27.5 °F 30.2 °F 93% 30.18 in 10.0 mi North 4.6 mph - N/A   Clear
12:35 AM 33.8 °F 29.6 °F 30.2 °F 87% 30.17 in 10.0 mi North 4.6 mph - N/A   Clear
12:55 AM 32.0 °F 26.4 °F 30.2 °F 93% 30.18 in 10.0 mi North 5.8 mph - N/A   Clear
1:15 AM 32.0 °F 26.4 °F 30.2 °F 93% 30.18 in 10.0 mi NNE 5.8 mph - N/A   Clear
1:35 AM 32.0 °F 27.5 °F 28.4 °F 87% 30.18 in 10.0 mi North 4.6 mph - N/A   Scattered Clouds
1:55 AM 32.0 °F - 30.2 °F 93% 30.18 in 10.0 mi Calm Calm - N/A   Mostly Cloudy
1:15 AM 32.0 °F - 30.2 °F 93% 30.18 in 10.0 mi Calm Calm - N/A   Mostly Cloudy
1:35 AM 32.0 °F 28.7 °F 28.4 °F 87% 30.18 in 10.0 mi North 3.5 mph - N/A   Scattered Clouds
1:55 AM 32.0 °F - 30.2 °F 93% 30.18 in 10.0 mi Calm Calm - N/A   Scattered Clouds
2:15 AM 30.2 °F - 28.4 °F 93% 30.19 in 10.0 mi Calm Calm - N/A   Mostly Cloudy
2:35 AM 30.2 °F - 28.4 °F 93% 30.19 in 10.0 mi Calm Calm - N/A   Mostly Cloudy
2:55 AM 30.2 °F - 28.4 °F 93% 30.19 in 10.0 mi Calm Calm - N/A   Overcast
3:15 AM 30.2 °F 26.7 °F 28.4 °F 93% 30.19 in 10.0 mi North 3.5 mph - N/A   Overcast
3:35 AM 30.2 °F - 30.2 °F 100% 30.18 in 10.0 mi Calm Calm - N/A   Overcast
3:55 AM 32.0 °F - 30.2 °F 93% 30.18 in 10.0 mi Calm Calm - N/A   Overcast
4:15 AM 32.0 °F - 30.2 °F 93% 30.19 in 10.0 mi Calm Calm - N/A   Overcast
4:35 AM 32.0 °F - 30.2 °F 93% 30.19 in 10.0 mi Calm Calm - N/A   Overcast
4:55 AM 30.2 °F - 30.2 °F 100% 30.19 in 10.0 mi Calm Calm - N/A   Overcast
5:15 AM 32.0 °F - 30.2 °F 93% 30.19 in 10.0 mi Calm Calm - N/A   Overcast
5:35 AM 32.0 °F - 30.2 °F 93% 30.20 in 10.0 mi Calm Calm - N/A   Overcast
5:55 AM 32.0 °F - 30.2 °F 93% 30.20 in 10.0 mi Calm Calm - N/A   Overcast
6:15 AM 32.0 °F - 30.2 °F 93% 30.20 in 10.0 mi Calm Calm - N/A   Overcast
6:35 AM 32.0 °F - 30.2 °F 93% 30.19 in 10.0 mi Calm Calm - N/A   Overcast
6:55 AM 32.0 °F - 30.2 °F 93% 30.20 in 10.0 mi Calm Calm - N/A   Overcast
7:15 AM 30.2 °F - 30.2 °F 100% 30.21 in 10.0 mi Calm Calm - N/A   Overcast
7:35 AM 32.0 °F - 30.2 °F 93% 30.21 in 10.0 mi Calm Calm - N/A   Overcast
7:55 AM 32.0 °F - 30.2 °F 93% 30.22 in 10.0 mi Calm Calm - N/A   Overcast
8:15 AM 32.0 °F - 30.2 °F 93% 30.22 in 10.0 mi Calm Calm - N/A   Overcast
8:35 AM 32.0 °F - 32.0 °F 100% 30.22 in 10.0 mi Calm Calm - N/A   Overcast
8:55 AM 33.8 °F 30.8 °F 32.0 °F 93% 30.22 in 10.0 mi NNW 3.5 mph - N/A   Overcast
9:15 AM 33.8 °F 30.8 °F 32.0 °F 93% 30.21 in 10.0 mi NNW 3.5 mph - N/A   Overcast
9:35 AM 33.8 °F 30.8 °F 32.0 °F 93% 30.22 in 10.0 mi North 3.5 mph - N/A   Mostly Cloudy
9:55 AM 35.6 °F 32.8 °F 30.2 °F 81% 30.22 in 10.0 mi NNE 3.5 mph - N/A   Mostly Cloudy
10:15 AM 35.6 °F 31.7 °F 32.0 °F 87% 30.21 in 10.0 mi ENE 4.6 mph - N/A   Scattered Clouds
10:35 AM 37.4 °F 33.8 °F 30.2 °F 75% 30.22 in 10.0 mi East 4.6 mph - N/A   Scattered Clouds
10:55 AM 37.4 °F - 30.2 °F 75% 30.22 in 10.0 mi Calm Calm - N/A   Scattered Clouds
11:15 AM 37.4 °F - 30.2 °F 75% 30.22 in 10.0 mi Calm Calm - N/A   Mostly Cloudy
11:35 AM 37.4 °F - 30.2 °F 75% 30.22 in 10.0 mi Calm Calm - N/A   Mostly Cloudy
11:55 AM 41.0 °F 38.0 °F 32.0 °F 70% 30.21 in 10.0 mi North 4.6 mph - N/A   Overcast
12:15 PM 41.0 °F 39.0 °F 30.2 °F 65% 30.21 in 10.0 mi North 3.5 mph - N/A   Overcast
12:35 PM 41.0 °F 37.1 °F 30.2 °F 65% 30.20 in 10.0 mi North 5.8 mph - N/A   Overcast
12:55 PM 41.0 °F - 30.2 °F 65% 30.20 in 10.0 mi Calm Calm - N/A   Overcast
1:15 PM 41.0 °F - 30.2 °F 65% 30.19 in 10.0 mi Calm Calm - N/A   Overcast
1:55 PM 41.0 °F 38.0 °F 30.2 °F 65% 30.19 in 10.0 mi WNW 4.6 mph - N/A   Overcast
2:15 PM 41.0 °F 38.0 °F 32.0 °F 70% 30.18 in 10.0 mi North 4.6 mph - N/A   Overcast
2:35 PM 41.0 °F - 30.2 °F 65% 30.18 in 10.0 mi Calm Calm - N/A   Overcast
2:55 PM 41.0 °F - 30.2 °F 65% 30.17 in 10.0 mi Calm Calm - N/A   Overcast
3:15 PM 42.8 °F - 32.0 °F 66% 30.17 in 10.0 mi Calm Calm - N/A   Overcast
3:35 PM 42.8 °F - 32.0 °F 66% 30.17 in 10.0 mi Calm Calm - N/A   Overcast
3:55 PM 42.8 °F - 32.0 °F 66% 30.17 in 10.0 mi Calm Calm - N/A   Overcast
4:15 PM 42.8 °F 41.1 °F 30.2 °F 61% 30.17 in 10.0 mi NNW 3.5 mph - N/A   Overcast
4:35 PM 42.8 °F 41.1 °F 32.0 °F 66% 30.16 in 10.0 mi NNW 3.5 mph - N/A   Overcast
4:55 PM 41.0 °F 38.0 °F 32.0 °F 70% 30.16 in 10.0 mi NNW 4.6 mph - N/A   Overcast
5:15 PM 41.0 °F - 32.0 °F 70% 30.16 in 10.0 mi Calm Calm - N/A   Overcast
5:35 PM 41.0 °F - 32.0 °F 70% 30.17 in 10.0 mi Calm Calm - N/A   Overcast
5:55 PM 39.2 °F 37.0 °F 32.0 °F 75% 30.17 in 10.0 mi NNW 3.5 mph - N/A   Overcast
6:15 PM 37.4 °F 33.8 °F 32.0 °F 81% 30.17 in 10.0 mi North 4.6 mph - N/A   Overcast
6:35 PM 41.0 °F 39.0 °F 32.0 °F 70% 30.18 in 10.0 mi NNE 3.5 mph - N/A   Overcast
6:55 PM 41.0 °F 38.0 °F 30.2 °F 65% 30.18 in 10.0 mi North 4.6 mph - N/A   Overcast
7:15 PM 41.0 °F 39.0 °F 30.2 °F 65% 30.18 in 10.0 mi NNE 3.5 mph - N/A   Overcast
7:55 PM 39.2 °F 35.9 °F 30.2 °F 70% 30.18 in 10.0 mi NNE 4.6 mph - N/A   Overcast
8:15 PM 37.4 °F 33.8 °F 30.2 °F 75% 30.18 in 10.0 mi NNE 4.6 mph - N/A   Scattered Clouds
8:35 PM 37.4 °F 32.8 °F 30.2 °F 75% 30.18 in 10.0 mi NNE 5.8 mph - N/A   Clear
8:55 PM 35.6 °F 31.7 °F 30.2 °F 81% 30.18 in 10.0 mi NE 4.6 mph - N/A   Clear
9:15 PM 35.6 °F 30.7 °F 30.2 °F 81% 30.18 in 10.0 mi NE 5.8 mph - N/A   Clear
9:35 PM 33.8 °F 29.6 °F 28.4 °F 81% 30.18 in 10.0 mi NNE 4.6 mph - N/A   Clear
9:55 PM 33.8 °F 30.8 °F 28.4 °F 81% 30.18 in 10.0 mi NNE 3.5 mph - N/A   Clear
10:15 PM 32.0 °F 28.7 °F 28.4 °F 87% 30.18 in 10.0 mi NNE 3.5 mph - N/A   Clear
10:35 PM 33.8 °F - 28.4 °F 81% 30.18 in 10.0 mi Calm Calm - N/A   Clear
10:55 PM 32.0 °F - 28.4 °F 87% 30.18 in 10.0 mi Calm Calm - N/A   Clear